When you browse on this site, cookies collect data to enhance your experience and personalize the content and advertising you see.
Visit our Privacy Policy to learn more. By continuing to use the site, you agree to this use of cookies and data.
  • In Romania
  • List of Countries
  • For 7 days
  • Water Temperature
  • Weather Map
  • Weather Widgets
  • user-avatar
    Login

    Hourly Weather Ashtarak

    Today, 27 May, Wednesday

    Time Temperature Precipitation Wind Pressure Humidity
    00:00 +15°C° 0 mm 1 mps 661 mmHg 52%
    01:00 +15°C° 0 mm 1 mps 661 mmHg 54%
    02:00 +14°C° 0 mm 1 mps 661 mmHg 57%
    03:00 +14°C° 0 mm 1 mps 661 mmHg 58%
    04:00 +15°C° 0 mm 1 mps 661 mmHg 60%
    05:00 +16°C° 0 mm 1 mps 662 mmHg 62%
    06:00 +16°C° 0 mm 1 mps 662 mmHg 64%
    07:00 +19°C° 0 mm 1 mps 662 mmHg 58%
    08:00 +21°C° 0 mm 1 mps 663 mmHg 52%
    09:00 +23°C° 0 mm 1 mps 663 mmHg 46%
    10:00 +24°C° 0 mm 2 mps 663 mmHg 43%
    11:00 +25°C° 0 mm 2 mps 663 mmHg 41%
    12:00 +26°C° 0 mm 2 mps 663 mmHg 38%
    13:00 +26°C° 0 mm 2 mps 663 mmHg 37%
    14:00 +27°C° 0 mm 2 mps 662 mmHg 35%
    15:00 +27°C° 0 mm 2 mps 662 mmHg 34%
    16:00 +27°C° 0 mm 1 mps 662 mmHg 38%
    17:00 +26°C° 0 mm 1 mps 662 mmHg 42%
    18:00 +24°C° 0 mm 0 mps 662 mmHg 47%
    19:00 +24°C° 0 mm 1 mps 662 mmHg 49%
    20:00 +21°C° 0 mm 2 mps 661 mmHg 50%
    21:00 +19°C° 0 mm 2 mps 661 mmHg 52%
    22:00 +18°C° 0 mm 2 mps 661 mmHg 51%
    23:00 +18°C° 0 mm 2 mps 660 mmHg 50%

    Tomorrow, 28 May, Thursday

    Time Temperature Precipitation Wind Pressure Humidity
    00:00 +18°C° 0 mm 2 mps 660 mmHg 49%
    01:00 +18°C° 0 mm 1 mps 660 mmHg 50%
    02:00 +18°C° 0 mm 1 mps 660 mmHg 50%
    03:00 +16°C° 0 mm 1 mps 660 mmHg 51%
    04:00 +18°C° 0 mm 1 mps 660 mmHg 53%
    05:00 +19°C° 0 mm 1 mps 660 mmHg 54%
    06:00 +20°C° 0 mm 1 mps 661 mmHg 56%
    07:00 +22°C° 0 mm 1 mps 661 mmHg 51%
    08:00 +23°C° 0 mm 1 mps 661 mmHg 45%
    09:00 +25°C° 0 mm 1 mps 661 mmHg 40%
    10:00 +26°C° 0 mm 1 mps 661 mmHg 38%
    11:00 +27°C° 0 mm 2 mps 661 mmHg 35%
    12:00 +28°C° 0 mm 2 mps 661 mmHg 33%
    13:00 +29°C° 0 mm 2 mps 661 mmHg 31%
    14:00 +29°C° 0 mm 2 mps 660 mmHg 29%
    15:00 +30°C° 0 mm 2 mps 660 mmHg 27%
    16:00 +29°C° 0 mm 1 mps 660 mmHg 30%
    17:00 +29°C° 0 mm 1 mps 660 mmHg 33%
    18:00 +28°C° 0 mm 1 mps 660 mmHg 36%
    19:00 +26°C° 0.1 mm 2 mps 659 mmHg 38%
    20:00 +24°C° 0.1 mm 2 mps 659 mmHg 41%
    21:00 +21°C° 0.1 mm 3 mps 659 mmHg 43%
    22:00 +20°C° 0 mm 2 mps 659 mmHg 47%
    23:00 +19°C° 0 mm 2 mps 659 mmHg 50%

    Day after tomorrow, 29 May, Friday

    Time Temperature Precipitation Wind Pressure Humidity
    00:00 +19°C° 0 mm 1 mps 658 mmHg 54%
    01:00 +19°C° 0.1 mm 1 mps 658 mmHg 55%
    02:00 +18°C° 0.1 mm 1 mps 657 mmHg 57%
    03:00 +18°C° 0.1 mm 1 mps 657 mmHg 59%
    04:00 +19°C° 0 mm 1 mps 657 mmHg 59%
    05:00 +19°C° 0 mm 1 mps 657 mmHg 59%
    06:00 +20°C° 0 mm 1 mps 657 mmHg 58%
    07:00 +22°C° 0 mm 1 mps 657 mmHg 52%
    08:00 +24°C° 0 mm 1 mps 657 mmHg 46%
    09:00 +26°C° 0 mm 1 mps 657 mmHg 40%
    10:00 +27°C° 0 mm 2 mps 657 mmHg 38%
    11:00 +28°C° 0 mm 3 mps 657 mmHg 35%
    12:00 +29°C° 0 mm 5 mps 657 mmHg 32%
    13:00 +30°C° 0 mm 5 mps 656 mmHg 31%
    14:00 +32°C° 0 mm 5 mps 656 mmHg 30%
    15:00 +32°C° 0 mm 5 mps 656 mmHg 28%
    16:00 +30°C° 0 mm 5 mps 656 mmHg 31%
    17:00 +28°C° 0 mm 6 mps 655 mmHg 34%
    18:00 +27°C° 0 mm 6 mps 655 mmHg 37%
    19:00 +25°C° 0 mm 5 mps 655 mmHg 37%
    20:00 +22°C° 0 mm 4 mps 655 mmHg 37%
    21:00 +20°C° 0 mm 3 mps 656 mmHg 37%
    22:00 +19°C° 0 mm 3 mps 656 mmHg 38%
    23:00 +18°C° 0 mm 2 mps 655 mmHg 39%

    30 May, Saturday

    Time Temperature Precipitation Wind Pressure Humidity
    00:00 +17°C° 0 mm 2 mps 655 mmHg 41%
    01:00 +17°C° 0 mm 2 mps 655 mmHg 40%
    02:00 +16°C° 0 mm 2 mps 655 mmHg 39%
    03:00 +15°C° 0 mm 2 mps 655 mmHg 37%
    04:00 +16°C° 0 mm 2 mps 656 mmHg 38%
    05:00 +16°C° 0 mm 2 mps 656 mmHg 39%
    06:00 +16°C° 0 mm 2 mps 656 mmHg 40%
    07:00 +17°C° 0 mm 2 mps 657 mmHg 35%
    08:00 +19°C° 0 mm 2 mps 657 mmHg 30%
    09:00 +21°C° 0 mm 2 mps 657 mmHg 25%
    10:00 +22°C° 0 mm 3 mps 658 mmHg 24%
    11:00 +24°C° 0 mm 3 mps 658 mmHg 23%
    12:00 +25°C° 0 mm 3 mps 658 mmHg 21%
    13:00 +25°C° 0 mm 3 mps 658 mmHg 22%
    14:00 +25°C° 0 mm 3 mps 657 mmHg 23%
    15:00 +26°C° 0 mm 3 mps 657 mmHg 23%
    16:00 +25°C° 0 mm 2 mps 657 mmHg 27%
    17:00 +25°C° 0 mm 2 mps 658 mmHg 31%
    18:00 +24°C° 0 mm 1 mps 658 mmHg 35%
    19:00 +22°C° 0 mm 1 mps 658 mmHg 35%
    20:00 +19°C° 0 mm 2 mps 658 mmHg 35%
    21:00 +17°C° 0 mm 2 mps 658 mmHg 35%
    22:00 +16°C° 0 mm 2 mps 658 mmHg 36%
    23:00 +16°C° 0 mm 2 mps 658 mmHg 38%

    31 May, Sunday

    Time Temperature Precipitation Wind Pressure Humidity
    00:00 +15°C° 0 mm 2 mps 658 mmHg 39%
    01:00 +15°C° 0 mm 2 mps 658 mmHg 42%
    02:00 +14°C° 0 mm 2 mps 658 mmHg 44%
    03:00 +13°C° 0 mm 2 mps 658 mmHg 46%
    04:00 +14°C° 0 mm 2 mps 658 mmHg 48%
    05:00 +15°C° 0 mm 2 mps 659 mmHg 49%
    06:00 +16°C° 0 mm 1 mps 659 mmHg 50%
    07:00 +17°C° 0 mm 2 mps 659 mmHg 45%
    08:00 +19°C° 0 mm 2 mps 660 mmHg 40%
    09:00 +21°C° 0 mm 2 mps 660 mmHg 34%
    10:00 +23°C° 0 mm 2 mps 660 mmHg 31%
    11:00 +24°C° 0 mm 2 mps 660 mmHg 29%
    12:00 +25°C° 0 mm 2 mps 660 mmHg 26%
    13:00 +26°C° 0 mm 2 mps 660 mmHg 25%
    14:00 +26°C° 0 mm 2 mps 660 mmHg 24%
    15:00 +26°C° 0 mm 1 mps 659 mmHg 22%
    16:00 +26°C° 0 mm 1 mps 659 mmHg 27%
    17:00 +26°C° 0 mm 1 mps 659 mmHg 31%
    18:00 +23°C° 0 mm 0 mps 659 mmHg 36%
    19:00 +23°C° 0 mm 1 mps 659 mmHg 40%
    20:00 +20°C° 0 mm 2 mps 659 mmHg 44%
    21:00 +18°C° 0 mm 3 mps 659 mmHg 48%
    22:00 +17°C° 0 mm 3 mps 658 mmHg 48%
    23:00 +17°C° 0 mm 3 mps 658 mmHg 48%

    1 June, Monday

    Time Temperature Precipitation Wind Pressure Humidity
    00:00 +16°C° 0 mm 2 mps 658 mmHg 49%
    01:00 +16°C° 0 mm 2 mps 658 mmHg 50%
    02:00 +15°C° 0 mm 2 mps 658 mmHg 50%
    03:00 +15°C° 0 mm 2 mps 658 mmHg 51%
    04:00 +16°C° 0 mm 2 mps 658 mmHg 53%
    05:00 +16°C° 0 mm 2 mps 658 mmHg 55%
    06:00 +18°C° 0 mm 1 mps 659 mmHg 57%
    07:00 +19°C° 0 mm 2 mps 659 mmHg 51%
    08:00 +21°C° 0 mm 2 mps 659 mmHg 46%
    09:00 +23°C° 0 mm 2 mps 659 mmHg 41%
    10:00 +24°C° 0 mm 2 mps 660 mmHg 38%
    11:00 +26°C° 0 mm 3 mps 660 mmHg 36%
    12:00 +27°C° 0 mm 3 mps 660 mmHg 33%
    13:00 +27°C° 0 mm 3 mps 659 mmHg 31%
    14:00 +28°C° 0 mm 3 mps 659 mmHg 30%
    15:00 +28°C° 0 mm 3 mps 659 mmHg 28%
    16:00 +28°C° 0 mm 3 mps 658 mmHg 31%
    17:00 +27°C° 0 mm 3 mps 658 mmHg 34%
    18:00 +26°C° 0 mm 4 mps 658 mmHg 37%
    19:00 +25°C° 0 mm 3 mps 658 mmHg 37%
    20:00 +22°C° 0 mm 3 mps 658 mmHg 36%
    21:00 +20°C° 0 mm 3 mps 658 mmHg 36%
    22:00 +19°C° 0 mm 2 mps 658 mmHg 38%
    23:00 +19°C° 0 mm 2 mps 657 mmHg 39%
    Show more